TimeMDT,TemperatureF,Dew PointF,Humidity,Sea Level PressureIn,VisibilityMPH,Wind Direction,Wind SpeedMPH,Gust SpeedMPH,PrecipitationIn,Events,Conditions,WindDirDegrees,DateUTC
12:52 AM,52.0,30.0,43,29.92,10.0,South,5.8,-,N/A,,Clear,170,2013-05-07 06:52:00
2:52 AM,55.0,35.1,47,29.88,10.0,South,18.4,27.6,N/A,,Clear,180,2013-05-07 08:52:00
3:52 AM,55.9,34.0,44,29.88,10.0,South,21.9,28.8,N/A,,Clear,180,2013-05-07 09:52:00
4:52 AM,55.0,34.0,45,29.89,10.0,South,23.0,29.9,N/A,,Clear,180,2013-05-07 10:52:00
5:52 AM,54.0,37.0,53,29.88,10.0,South,25.3,36.8,N/A,,Clear,170,2013-05-07 11:52:00
6:52 AM,55.9,37.9,51,29.89,10.0,South,26.5,35.7,N/A,,Clear,170,2013-05-07 12:52:00
7:52 AM,59.0,41.0,51,29.89,10.0,South,23.0,32.2,N/A,,Clear,180,2013-05-07 13:52:00
8:52 AM,62.1,42.1,48,29.89,10.0,South,24.2,32.2,N/A,,Clear,180,2013-05-07 14:52:00
9:52 AM,64.9,43.0,45,29.88,10.0,South,25.3,32.2,N/A,,Clear,180,2013-05-07 15:52:00
10:52 AM,64.9,43.0,45,29.88,10.0,South,24.2,31.1,N/A,,Clear,190,2013-05-07 16:52:00
11:52 AM,68.0,43.0,40,29.88,10.0,South,21.9,27.6,N/A,,Scattered Clouds,190,2013-05-07 17:52:00
12:52 PM,71.1,43.0,36,29.85,10.0,South,18.4,27.6,N/A,,Mostly Cloudy,170,2013-05-07 18:52:00
1:52 PM,72.0,39.9,31,29.82,10.0,South,13.8,-,N/A,,Scattered Clouds,170,2013-05-07 19:52:00
2:52 PM,73.0,42.1,33,29.79,10.0,SSW,13.8,-,0.00,Rain,Light Rain,210,2013-05-07 20:52:00
3:52 PM,73.9,42.1,32,29.77,10.0,South,15.0,20.7,0.00,,Clear,190,2013-05-07 21:52:00
4:35 PM,73.4,39.2,29,29.82,10.0,South,8.1,-,N/A,Thunderstorm,Clear,180,2013-05-07 22:35:00
4:52 PM,73.0,39.0,29,29.76,10.0,SSW,10.4,-,N/A,,Partly Cloudy,200,2013-05-07 22:52:00
5:03 PM,71.6,37.4,29,29.83,10.0,South,15.0,-,N/A,Thunderstorm,Scattered Clouds,190,2013-05-07 23:03:00
5:18 PM,69.8,37.4,31,29.83,10.0,SSW,11.5,-,N/A,,Mostly Cloudy,200,2013-05-07 23:18:00
5:29 PM,69.8,37.4,31,29.83,10.0,SSW,13.8,-,N/A,Thunderstorm,Mostly Cloudy,200,2013-05-07 23:29:00
5:52 PM,64.0,43.0,46,29.79,10.0,South,11.5,-,0.00,Rain-Thunderstorm,Light Rain,180,2013-05-07 23:52:00
6:38 PM,53.6,46.4,77,29.90,4.0,ENE,26.5,35.7,0.08,Rain-Thunderstorm,Heavy Thunderstorms and Rain,60,2013-05-08 00:38:00
6:44 PM,51.8,46.4,82,29.91,1.8,East,26.5,36.8,0.19,Rain-Thunderstorm,Heavy Thunderstorms and Rain,80,2013-05-08 00:44:00
6:52 PM,53.1,46.9,80,29.87,3.0,East,23.0,36.8,0.24,Rain-Thunderstorm,Rain,100,2013-05-08 00:52:00
7:20 PM,53.6,48.2,82,29.89,10.0,ESE,19.6,28.8,0.00,,Partly Cloudy,110,2013-05-08 01:20:00
7:52 PM,54.0,46.9,77,29.86,10.0,ESE,16.1,-,0.00,,Clear,120,2013-05-08 01:52:00
8:52 PM,53.1,46.0,77,29.86,10.0,SSE,19.6,29.9,N/A,,Mostly Cloudy,150,2013-05-08 02:52:00
9:52 PM,53.1,45.0,74,29.87,10.0,SSE,9.2,-,N/A,,Mostly Cloudy,150,2013-05-08 03:52:00
10:52 PM,48.9,45.0,86,29.87,10.0,Calm,Calm,-,N/A,,Clear,0,2013-05-08 04:52:00
11:52 PM,48.9,44.1,83,29.88,10.0,East,8.1,-,N/A,,Clear,90,2013-05-08 05:52:00